Back to catalog

COSMOS 708

AliveMilitaryLEO
NORAD 7663·PAYLOAD·🇷🇺 Russia

Launched Feb 12, 1975 from Plesetsk Cosmodrome

Loading…

Next Passes (next 24 hours)

TLE

FreshSource: Space-Track

Epoch: Sep 14, 2026, 13:45 UTC

1 07663U 75012A   26257.57331934 -.00000035  00000-0  31454-4 0  9994
2 07663  69.2313 288.0113 0023739  19.4960 147.7168 12.68302520388860

Track COSMOS 708 in real time with AllMySat

Download on the App Store